Location: Elmsmere
(40.9284°N, 73.8207°W)
Time: 05:12:33
(UTC+00:00)

Cosmos 2058 - Pass Details

Date: 29 October 2020
Orbit: 562 x 583 km, 82.5° (Epoch: 29 November)

Event Time Altitude Azimuth Distance (km) Brightness Sun altitude
Rises 22:19:35 0° 10° (N) 2,762 6.2 -5.4°
Reaches altitude 10° 22:22:28 10° 31° (NNE) 1,861 5.1 -6.0°
Maximum altitude 22:25:06 16° 72° (ENE) 1,488 4.4 -6.5°
Drops below altitude 10° 22:27:43 10° 112° (ESE) 1,855 5.0 -6.9°
Sets 22:30:35 0° 134° (SE) 2,749 6.0 -7.5°
